Location: Izdebno
(52.6670°N, 16.2170°E)
Time: 13:27:00
(UTC+02:00)

Vanguard 2 - Pass Details

Date: 07 February 2023
Orbit: 553 x 2927 km, 32.9° (Epoch: 26 March)

Event Time Altitude Azimuth Distance (km) Brightness Sun altitude
Rises 23:00:06 0° 248° (WSW) 5,499 11.9 -50.1°
Enters shadow 23:03:46 10° 240° (WSW) 4,798 11.5 -50.3°
Reaches altitude 10° 23:03:47 10° 240° (WSW) 4,796 - -50.3°
Maximum altitude 23:16:11 35° 182° (S) 3,818 - -51.0°
Drops below altitude 10° 23:31:05 10° 126° (SE) 5,744 - -51.7°
Sets 23:36:01 0° 119° (ESE) 6,678 - -51.9°
